Regional Weather Roundup
Issued by NWS Green Bay, WI

Home | Current Version | Previous Version | Text Only | Print | Product List | Glossary Off
Versions: 1 2 3 4 5 6 7 8 9 10 11 12 13 14 15 16 17 18 19 20 21 22 23 24 25 26 27 28 29 30 31 32 33 34 35 36 37 38 39 40 41 42 43 44 45 46 47 48 49 50

000
ASUS43 KGRB 220500
RWRGRB

NORTH-CENTRAL AND NORTHEAST WISCONSIN REGIONAL WEATHER ROUNDUP
NATIONAL WEATHER SERVICE GREEN BAY WI
1100 PM CST SUN JAN 21 2018

WIZ005-009-010>012-018-019-220600-
NORTH CENTRAL WISCONSIN

CITY           SKY/WX    TMP DP  RH WIND       PRES   REMARKS
IRONWOOD       CLOUDY    30  29  96 NE9       30.03S
MANITOWISH WTR NOT AVBL
ARBOR VITAE    NOT AVBL
EAGLE RIVER    CLOUDY    32  31  96 NE7       29.97F
LAND O LAKES   NOT AVBL
RHINELANDER    CLOUDY    34  31  88 NE6       29.97S
PHILLIPS       CLOUDY    32  30  92 NE5       29.96S
ANTIGO         NOT AVBL
TOMAHAWK       NOT AVBL
MERRILL        CLOUDY    36  31  83 NE5       29.95F
$$

WIZ013-073-220600-
NORTHEAST WISCONSIN

CITY           SKY/WX    TMP DP  RH WIND       PRES   REMARKS
IRON MOUNTAIN  CLOUDY    33  30  88 N5        29.99F
MARINETTE      NOT AVBL
$$

WIZ017-030-035>037-045-220600-
CENTRAL WISCONSIN

CITY           SKY/WX    TMP DP  RH WIND       PRES   REMARKS
MEDFORD        NOT AVBL
WAUSAU         CLOUDY    36  30  79 E10       29.92S
MOSINEE        NOT AVBL
MARSHFIELD     CLOUDY    36  31  82 E14       29.90F
WISC RAPIDS    CLOUDY    37  31  78 E10       29.92F
STEVENS POINT  NOT AVBL
WAUPACA        NOT AVBL
SHAWANO        CLOUDY    36  32  85 NE9       29.97F
CLINTONVILLE   NOT AVBL
WAUTOMA        MIX PCPN  35  34  96 NE9       29.92F FOG
$$

WIZ038-039-048-051-220600-
FOX VALLEY

CITY           SKY/WX    TMP DP  RH WIND       PRES   REMARKS
NWS GREEN BAY  CLOUDY    33  31  92 NE12      29.96F FOG
APPLETON       FOG       34  34 100 NE7       29.93S VSB 3/4
OSHKOSH        LGT RAIN  35  34  96 NE9       29.92F VSB 1/4
FOND DU LAC    LGT RAIN  36  34  92 NE10      29.91F FOG
$$

WIZ022-050-052-220600-
EAST CENTRAL WISCONSIN

CITY           SKY/WX    TMP DP  RH WIND       PRES   REMARKS
EPHRAIM        NOT AVBL
WASHINGTON ISL NOT AVBL
STURGEON BAY   LGT RAIN  34  33  96 NE6       29.99F VSB 1/4
MANITOWOC      CLOUDY    35  35 100 NE8       29.96F FOG
SHEBOYGAN      FOG       35  35 100 NE14      29.92F VSB 1/2
$$

LMZ563-521-522-541>543-220600-
LAKESHORE

STATION/POSITION TIME  TEMP    WIND        PRES    VSBY  WAVE
                       AIR SEA DIR/SP/G                  HT/PER
                 (UTC) (F)     (DEG/KT/KT) (MB)    (MI)  (FT/S)
SHEBOYGAN LKSHOR 0400   36      30/ 11/ 12 1014.5F
KEWAUNEE LKSHORE 0430   34      30/  7/ 10 1014.5F
NORTHPORT PIER   0440   33     340/  2/  4 1016.6R
SISTER BAY LKSHO 0420   34        CALM       N/A
MENOMINEE LKSHOR 0424   33      30/ 13/ 14 1016.1
$$




USA.gov is the U.S. government's official web portal to all federal, state and local government web resources and services.